Weather in Batmany

Russia / Ivanovo Oblast     57°15′47″N   42°18′13″E
temp.,
°C
wind,
m/s
gust,
m/s
humid.,
%
clouds,
%
prec.,
mm/h
press.,
hPa
HPBL,
m
25 february, thu
thu2500:00−17s5995100 0.4 1028400
03:00−16s51096100 1.1 1026452
06:00−16s61195100 1.8 1021462
09:00−15s51095100 3.5 1017467
12:00−12s4894100 1.8 1013433
15:00−8sse3694100 2.8 1012336
18:00−9se2296100 0.4 101148
21:00−9s2297100 0.5 101269
26 february, fri
fri2600:00−6ssw1297100 0.4 101063
03:00−2sw1299100 0.9 101083
06:000ssw1299100 0.1 100875
09:000s24100100 0.4 1006141
12:00+1s37100100 2.6 1002227
15:00+2sw39100100 6.1 998239
18:00+2w61599100 4.7 995636
21:00+1w71499100 5.8 994621
27 february, sat
sat2700:000w61397100 0.5 993737
03:000wnw61297100 1.8 994728
06:00−4nw51094100 1.2 994545
09:00−9n5894100 1.6 997526
12:00−9n5889100 0.3 1000646
15:00−9n5888100 0.4 1004642
18:00−10n3893100 0.1 1006476
21:00−13n3896100 0.1 1009229
28 february, sun
sun2800:00−16nnw359773 0.0 1010100
03:00−17nnw369645 0.0 1012116
06:00−18nnw35960 0.0 1013117
09:00−16n369310 0.0 1015253
12:00−11nnw479184 0.0 1016452
15:00−9nnw478992 0.1 1017626
18:00−10nnw3993100 0.1 1018386
21:00−14n339678 0.1 102156
1 march, mon
mon100:00−15n239630 0.0 102222
03:00−14nnw229759 0.0 102420
06:00−15wnw229895 0.0 102520
09:00−11w129691 0.1 102581
12:00−5wsw359177 0.0 1024324
15:00−3wsw489284 0.0 1022456
18:00−3wsw51195100 0.1 1020581
21:00−1wsw51295100 0.4 1016590